Flag for U.S.A. Weather past 2 weeks in Chandler, Arizona, U.S.A.

Now
45 °F

Overcast.


Feels Like: 45 °F
Forecast: 47 / 61 °F
Wind: No wind

Location: Williams Gateway Airport

Current Time: Mar 3, 2015 at 4:22:39 AM

Latest Report: Mar 3, 2015 at 3:55 AM


Visibility: 10 mi

Pressure: 29.94 "Hg

Humidity: 100%

Dew point: 45 °F

Location of ChandlerLocation

Historic Weather in Chandler — Graph

°F

Chandler temperature yesterday

Maximum temperature yesterday: 64 °F (at 9:57 AM)
Minimum temperature yesterday: 48 °F (at 8:47 PM)
Average temperature yesterday: 56 °F

Past Weeks' High & Low Weather Summary

 TemperatureHumidityPressure
High75 °F (Feb 18, 2:47 PM)100% (Feb 24, 3:15 AM)30.22 "Hg (Feb 24, 3:15 AM)
Low39 °F (Feb 25, 5:47 AM)13% (Feb 17, 3:47 PM)29.65 "Hg (Feb 27, 3:47 PM)
Average57 °F57%29.96 "Hg
* Reported Feb 16 3:15 AM — Mar 3 3:15 AM, Chandler, Weather by CustomWeather, © 2015

Note: Actual official high and low records may vary slightly from our data, if they occured in-between our weather recording intervals... More about our weather records

Advertising

Chandler weather history for previous 24 hours

 ConditionsComfort  
Time TempWeatherWind HumidityBarometerVisibility
3:15 AM
Tue, Mar 3
45 °FPassing clouds.No wind100%29.96 "Hg10 mi
2:55 AM45 °FPassing clouds.3 mph100%29.96 "Hg7 mi
2:35 AM45 °FFog.No wind100%29.96 "Hg5 mi
2:15 AM45 °FClear.No wind93%29.96 "Hg10 mi
1:55 AM45 °FClear.3 mph100%29.97 "Hg10 mi
1:35 AM46 °FClear.No wind93%29.98 "Hg10 mi
1:15 AM45 °FClear.No wind100%29.98 "Hg10 mi
12:55 AM45 °FPassing clouds.No wind100%29.99 "Hg10 mi
12:35 AM46 °FPassing clouds.3 mph93%30.00 "Hg10 mi
12:15 AM46 °FPassing clouds.5 mph93%30.00 "Hg10 mi
11:47 PM
Mon, Mar 2
48 °FPartly cloudy.5 mph94%30.01 "Hg20 mi
10:47 PM48 °FPartly cloudy.No wind100%30.02 "Hg20 mi
9:47 PM48 °FPartly cloudy.No wind94%30.02 "Hg20 mi
8:47 PM48 °FPartly cloudy.7 mph94%30.02 "Hg20 mi
7:47 PM50 °FPassing clouds.7 mph88%30.01 "Hg20 mi
6:48 PM52 °FPassing clouds.5 mph82%30.00 "Hg20 mi
5:47 PM52 °FMore clouds than sun.5 mph82%29.99 "Hg20 mi
4:55 PM52 °FLight rain. Broken clouds.No wind82%29.98 "Hg35 mi
3:47 PM50 °FMore clouds than sun.6 mph88%29.97 "Hg4 mi
2:47 PM50 °FRain. Cloudy.16 mph94%29.96 "Hg4 mi
1:47 PM50 °FRain. Cloudy.12 mph94%29.94 "Hg5 mi
12:54 PM50 °FLight rain. Cloudy.14 mph94%29.94 "Hg5 mi
11:55 AM52 °FRain. Mostly cloudy.16 mph82%29.97 "Hg5 mi
10:48 AM52 °FCloudy.16 mph94%29.96 "Hg10 mi
9:57 AM64 °FBroken clouds.24 mph56%29.93 "Hg1 mi
8:47 AM63 °FPartly sunny.16 mph59%29.90 "Hg35 mi
7:47 AM61 °FBroken clouds.7 mph72%29.91 "Hg35 mi
6:52 AM61 °FLight rain. Partly cloudy.8 mph72%29.91 "Hg20 mi
5:50 AM61 °FPartly cloudy.5 mph72%29.91 "Hg20 mi
4:47 AM61 °FMostly cloudy.5 mph72%29.91 "Hg20 mi
4:15 AM59 °FPassing clouds.7 mph72%29.91 "Hg10 mi
Weather by CustomWeather, © 2015

See weather overviewHow to use our weather pages